�N����,����,�~����,�C��,���x,�C��,����,���ϕ���,�ő�u�ԕ���,�ő厞����,���˗�,�I�_���x,�n�����x,�ő啗���N��,DTYPE
"22/07/09","00:10",0.0,24.2,93.9,997.9,292.6,1.0,1.6,312.0,0.00,23.2,24.9,"00:07:00",1
"22/07/09","00:20",0.0,24.1,93.9,997.7,311.8,1.0,1.7,326.3,0.00,23.1,24.9,"00:12:08",1
"22/07/09","00:30",0.0,24.1,94.0,997.7,289.5,0.8,1.2,304.2,0.00,23.1,25.0,"00:27:04",1
"22/07/09","00:40",0.0,24.2,94.0,997.4,294.8,1.0,1.8,271.1,0.00,23.2,24.8,"00:39:52",1
"22/07/09","00:50",0.0,24.1,94.1,997.4,307.5,1.1,1.8,341.2,0.00,23.1,24.8,"00:40:24",1
"22/07/09","01:00",0.0,24.2,94.1,997.2,307.4,1.1,1.9,334.6,0.00,23.2,24.8,"00:52:48",1
"22/07/09","01:10",0.0,24.2,94.2,997.0,291.4,1.0,1.9,307.8,0.00,23.2,24.9,"01:07:04",1
"22/07/09","01:20",0.0,24.2,94.2,997.0,293.7,0.8,1.2,315.8,0.00,23.2,24.9,"01:15:28",1
"22/07/09","01:30",0.0,24.2,94.2,997.2,322.5,1.0,1.3,333.0,0.00,23.2,24.8,"01:20:24",1
"22/07/09","01:40",0.0,24.2,94.2,997.0,283.4,1.0,1.3,297.1,0.00,23.2,24.9,"01:38:32",1
"22/07/09","01:50",0.0,24.2,94.2,997.0,293.6,1.0,2.0,310.8,0.00,23.2,24.9,"01:47:04",1
"22/07/09","02:00",0.0,24.1,94.3,996.7,308.3,1.3,2.1,316.2,0.00,23.2,24.8,"01:50:16",1
"22/07/09","02:10",0.0,24.1,94.3,997.2,323.5,1.2,2.2,336.8,0.00,23.2,24.9,"02:03:44",1
"22/07/09","02:20",0.0,24.2,94.3,997.2,304.7,0.8,1.3,337.5,0.00,23.3,24.8,"02:13:36",1
"22/07/09","02:30",0.0,24.2,94.3,997.0,317.9,1.3,2.4,324.8,0.00,23.3,24.8,"02:26:24",1
"22/07/09","02:40",0.0,24.2,94.3,996.7,295.5,1.0,1.3,323.7,0.00,23.3,24.8,"02:37:04",1
"22/07/09","02:50",0.0,24.2,94.4,996.7,294.2,0.8,1.4,308.7,0.00,23.3,24.9,"02:46:16",1
"22/07/09","03:00",0.0,24.3,94.4,997.0,317.2,0.3,0.8,269.4,0.00,23.4,24.7,"02:50:16",1
"22/07/09","03:10",0.0,24.2,94.4,996.7,282.6,0.6,1.0,272.0,0.00,23.3,24.7,"03:02:56",1
"22/07/09","03:20",0.0,24.2,94.4,997.0,306.6,1.0,1.3,318.5,0.00,23.3,24.7,"03:18:00",1
"22/07/09","03:30",0.0,24.2,94.4,996.7,318.7,1.3,1.9,321.4,0.00,23.3,24.8,"03:25:12",1
"22/07/09","03:40",0.0,24.0,94.5,996.7,313.2,0.8,1.6,294.1,0.00,23.1,24.8,"03:34:08",1
"22/07/09","03:50",0.0,23.9,94.6,996.7,290.6,0.7,1.3,276.3,0.00,23.0,24.7,"03:49:12",1
"22/07/09","04:00",0.0,23.9,94.6,996.7,315.8,1.2,2.1,339.2,0.00,23.0,24.8,"03:58:32",1
"22/07/09","04:10",0.0,23.9,94.6,996.7,331.5,1.1,1.7,348.0,0.00,23.0,24.7,"04:00:48",1
"22/07/09","04:20",0.0,24.0,94.7,997.0,313.8,1.1,1.6,312.3,0.00,23.1,24.6,"04:18:56",1
"22/07/09","04:30",0.0,23.9,94.7,996.5,299.3,1.0,1.7,325.1,0.00,23.0,24.7,"04:23:28",1
"22/07/09","04:40",0.0,23.9,94.8,997.0,293.2,1.0,1.3,305.6,0.00,23.1,24.8,"04:37:36",1
"22/07/09","04:50",0.0,23.9,94.8,996.5,315.1,0.8,1.4,322.8,0.00,23.1,24.5,"04:49:36",1
"22/07/09","05:00",0.0,23.9,94.8,996.5,304.3,1.0,1.4,299.6,0.00,23.1,24.7,"04:50:16",1
"22/07/09","05:10",0.0,23.9,94.9,996.5,295.4,0.8,1.2,320.5,0.00,23.1,24.7,"05:01:04",1
"22/07/09","05:20",0.0,23.9,94.9,996.5,293.9,0.8,1.4,316.2,0.00,23.1,24.4,"05:13:52",1
"22/07/09","05:30",0.0,23.9,94.9,997.0,299.2,0.8,1.4,319.1,0.00,23.1,24.6,"05:23:52",1
"22/07/09","05:40",0.0,23.9,94.9,996.7,300.4,1.0,1.7,340.3,0.00,23.1,24.8,"05:38:16",1
"22/07/09","05:50",0.0,24.0,95.0,996.5,284.7,0.8,1.3,328.2,0.00,23.2,24.6,"05:40:24",1
"22/07/09","06:00",0.0,24.0,95.0,996.3,328.7,1.0,1.6,345.3,0.00,23.2,24.6,"05:55:28",1
"22/07/09","06:10",0.0,24.0,95.0,996.0,306.5,1.0,1.2,316.6,0.00,23.2,24.5,"06:04:08",1
"22/07/09","06:20",0.0,24.0,95.1,996.3,301.7,1.0,1.6,321.3,0.00,23.2,24.6,"06:14:48",1
"22/07/09","06:30",0.0,24.1,95.1,996.7,279.3,0.8,1.1,257.8,0.01,23.3,24.6,"06:21:20",1
"22/07/09","06:40",0.0,24.3,95.1,996.7,283.4,0.7,1.1,324.7,0.02,23.5,24.5,"06:33:20",1
"22/07/09","06:50",0.0,24.6,95.1,997.0,291.7,0.8,1.4,303.5,0.03,23.8,24.7,"06:44:08",1
"22/07/09","07:00",0.0,24.8,95.0,996.5,276.8,0.3,1.1,324.2,0.02,24.0,24.6,"06:50:02",1
"22/07/09","07:10",0.0,24.9,95.0,997.0,329.7,1.5,1.9,346.7,0.05,24.1,24.7,"07:03:52",1
"22/07/09","07:20",0.0,25.2,94.9,996.7,320.7,1.5,2.4,333.9,0.09,24.4,24.4,"07:10:48",1
"22/07/09","07:30",0.0,25.6,94.9,997.2,328.4,1.1,1.8,319.9,0.13,24.8,24.5,"07:25:20",1
"22/07/09","07:40",0.0,26.1,94.7,997.4,332.4,0.5,1.1,354.6,0.12,25.2,24.5,"07:37:44",1
"22/07/09","07:50",0.0,26.3,94.1,997.2,291.7,0.3,1.4,350.8,0.12,25.3,24.5,"07:47:44",1
"22/07/09","08:00",0.0,26.1,93.5,996.7,2.2,0.5,1.2,358.8,0.14,25.0,24.5,"07:53:52",1
"22/07/09","08:10",0.0,26.5,93.1,996.3,253.3,0.5,1.0,238.0,0.15,25.3,24.6,"08:03:20",1
"22/07/09","08:20",0.0,26.5,92.3,996.3,309.5,0.5,1.0,60.9,0.13,25.2,24.9,"08:15:44",1
"22/07/09","08:30",0.0,26.6,91.4,995.8,328.1,0.7,1.3,341.6,0.12,25.1,24.7,"08:29:28",1
"22/07/09","08:40",0.0,27.0,90.5,995.6,37.5,0.3,1.0,64.6,0.13,25.4,24.6,"08:35:28",1
"22/07/09","08:50",0.0,27.2,89.0,995.6,21.4,0.5,1.3,353.1,0.09,25.3,24.7,"08:44:16",1
"22/07/09","09:00",0.0,27.6,87.4,995.1,353.4,0.6,1.7,325.3,0.16,25.4,24.6,"08:58:56",1
"22/07/09","09:10",0.0,27.8,85.6,995.6,342.2,0.8,1.8,3.9,0.17,25.2,24.7,"09:04:48",1
"22/07/09","09:20",0.0,27.9,84.0,995.3,4.2,0.8,1.9,352.0,0.12,25.0,24.7,"09:14:48",1
"22/07/09","09:30",0.0,28.4,83.0,995.6,357.3,0.6,1.4,11.9,0.22,25.3,24.8,"09:20:32",1
"22/07/09","09:40",0.0,29.8,80.5,995.8,49.7,0.5,1.6,11.6,0.45,26.1,24.7,"09:30:32",1
"22/07/09","09:50",0.0,30.5,75.7,996.3,22.0,0.8,1.8,4.7,0.46,25.8,24.8,"09:45:36",1
"22/07/09","10:00",0.0,31.1,74.9,996.7,198.3,0.8,2.2,114.7,0.41,26.2,24.6,"09:58:24",1
"22/07/09","10:10",0.0,31.1,74.0,996.7,75.6,0.6,1.7,63.5,0.44,26.0,24.7,"10:03:28",1
"22/07/09","10:20",0.0,31.6,69.8,997.2,154.1,1.3,3.7,124.6,0.56,25.4,24.8,"10:16:56",1
"22/07/09","10:30",0.0,31.5,68.4,997.4,184.8,1.2,3.4,228.6,0.46,25.0,25.1,"10:20:16",1
"22/07/09","10:40",0.0,30.5,70.5,997.2,146.1,1.1,3.3,141.7,0.15,24.6,25.0,"10:32:16",1
"22/07/09","10:50",0.0,30.6,72.1,996.5,30.4,0.8,2.2,354.3,0.15,25.0,25.1,"10:43:28",1
"22/07/09","11:00",0.0,30.1,72.5,996.5,217.0,1.1,2.6,213.4,0.17,24.6,25.1,"10:54:48",1
"22/07/09","11:10",0.0,30.6,71.4,996.3,299.8,1.0,1.9,350.9,0.30,24.9,25.1,"11:09:44",1
"22/07/09","11:20",0.0,30.4,70.1,996.3,268.7,1.0,3.5,240.1,0.13,24.4,25.2,"11:19:12",1
"22/07/09","11:30",0.0,29.3,72.9,995.6,198.3,2.6,4.9,220.1,0.18,24.0,25.0,"11:23:04",1
"22/07/09","11:40",0.0,31.1,72.4,995.3,168.3,1.3,2.7,187.2,0.52,25.6,25.2,"11:32:08",1
"22/07/09","11:50",0.0,32.0,66.4,996.0,199.4,1.0,2.9,207.7,0.64,25.0,25.1,"11:43:12",1
"22/07/09","12:00",0.2,32.9,64.0,996.3,186.6,1.6,3.2,337.7,0.63,25.2,25.3,"11:57:04",1
"22/07/09","12:10",0.0,31.8,65.3,996.3,167.1,1.2,3.1,150.0,0.23,24.5,25.3,"12:00:08",1
"22/07/09","12:20",0.0,31.8,64.0,995.8,145.7,0.8,1.8,179.5,0.25,24.2,25.3,"12:14:56",1
"22/07/09","12:30",0.0,32.1,63.7,995.8,214.5,1.5,2.9,217.9,0.44,24.4,25.4,"12:28:24",1
"22/07/09","12:40",0.0,33.5,63.1,996.0,187.1,1.6,4.2,201.7,0.61,25.6,25.7,"12:33:28",1
"22/07/09","12:50",0.0,33.2,59.9,996.0,227.5,1.6,4.1,213.2,0.42,24.4,25.1,"12:43:28",1
"22/07/09","13:00",0.0,33.1,57.7,996.0,231.3,2.8,7.0,227.4,0.61,23.7,25.5,"12:51:44",1
"22/07/09","13:10",0.0,33.3,58.4,996.0,235.3,1.3,4.7,241.6,0.42,24.1,25.6,"13:01:12",1
"22/07/09","13:20",0.0,33.0,58.8,995.8,200.4,2.3,4.5,176.2,0.34,23.9,25.4,"13:13:52",1
"22/07/09","13:30",0.0,33.5,59.2,995.3,220.4,1.6,4.3,216.4,0.40,24.5,25.4,"13:27:04",1
"22/07/09","13:40",0.0,32.9,58.4,995.6,225.7,2.2,4.7,213.1,0.30,23.7,25.7,"13:32:32",1
"22/07/09","13:50",0.0,32.0,61.8,995.3,272.0,1.5,3.9,238.6,0.17,23.8,25.8,"13:40:48",1
"22/07/09","14:00",0.0,31.7,63.2,995.1,266.0,1.2,3.3,237.1,0.16,23.9,25.8,"13:53:44",1
"22/07/09","14:10",0.0,31.6,65.4,994.4,176.7,1.2,2.5,191.9,0.12,24.4,25.6,"14:01:44",1
"22/07/09","14:20",0.0,30.6,68.4,994.6,102.8,1.3,4.0,51.9,0.14,24.2,25.8,"14:19:12",1
"22/07/09","14:30",0.0,29.7,72.8,993.9,113.6,1.7,4.4,140.8,0.14,24.3,25.8,"14:27:20",1
"22/07/09","14:40",0.0,29.2,73.9,994.4,133.3,2.0,4.4,145.5,0.14,24.1,25.6,"14:39:52",1
"22/07/09","14:50",0.0,28.6,75.7,993.9,115.6,1.6,4.2,103.8,0.03,23.9,25.7,"14:47:44",1
"22/07/09","15:00",0.0,28.1,76.8,993.7,106.7,1.2,2.8,30.1,0.00,23.7,25.8,"14:57:28",1
"22/07/09","15:10",1.2,27.9,77.5,993.9,197.3,1.0,2.2,208.9,0.00,23.6,25.7,"15:09:44",1
"22/07/09","15:20",13.2,26.7,81.0,994.6,0.3,1.6,3.3,7.2,0.00,23.2,25.7,"15:13:12",1
"22/07/09","15:30",2.4,26.0,84.3,994.4,69.5,0.7,1.9,340.0,0.05,23.2,25.5,"15:20:16",1
"22/07/09","15:40",0.0,26.2,86.4,994.6,68.9,1.0,2.2,97.3,0.19,23.8,25.5,"15:39:28",1
"22/07/09","15:50",0.0,26.4,87.3,994.4,21.5,0.7,1.8,47.2,0.20,24.2,25.6,"15:41:04",1
"22/07/09","16:00",0.0,26.8,88.3,994.4,2.2,0.8,2.1,12.7,0.28,24.7,25.7,"15:57:44",1
"22/07/09","16:10",0.0,27.3,87.3,993.7,303.4,0.8,2.1,354.8,0.40,25.0,25.7,"16:07:52",1
"22/07/09","16:20",0.0,27.7,85.5,993.9,18.6,1.0,1.9,318.4,0.25,25.1,25.7,"16:10:40",1
"22/07/09","16:30",0.0,27.4,84.8,994.1,132.9,1.1,2.2,108.6,0.14,24.7,25.6,"16:24:48",1
"22/07/09","16:40",0.0,27.3,84.2,995.1,49.2,1.0,2.1,64.3,0.14,24.4,25.7,"16:37:20",1
"22/07/09","16:50",0.0,27.8,84.2,994.8,28.2,0.5,1.6,342.0,0.16,24.9,25.7,"16:46:24",1
"22/07/09","17:00",0.0,28.2,82.0,994.6,11.8,0.7,1.9,254.9,0.20,24.9,25.6,"16:59:44",1
"22/07/09","17:10",0.0,27.5,81.6,994.6,213.6,1.3,2.5,219.0,0.03,24.1,25.6,"17:08:48",1
"22/07/09","17:20",0.0,27.4,82.4,995.1,185.2,2.0,5.5,206.6,0.06,24.2,25.7,"17:17:36",1
"22/07/09","17:30",0.0,27.0,84.0,995.1,139.0,1.6,3.3,138.9,0.09,24.1,25.6,"17:24:32",1
"22/07/09","17:40",0.0,26.7,83.5,994.8,154.1,2.1,4.0,125.4,0.11,23.7,25.7,"17:35:52",1
"22/07/09","17:50",0.0,26.8,83.1,994.6,183.5,2.0,4.1,202.6,0.07,23.7,25.8,"17:45:04",1
"22/07/09","18:00",0.0,26.6,82.8,994.6,194.7,1.7,3.3,197.3,0.01,23.5,25.6,"17:55:04",1
"22/07/09","18:10",0.0,26.4,81.9,995.1,207.8,1.8,4.0,190.4,0.00,23.1,25.8,"18:01:12",1
"22/07/09","18:20",0.0,26.1,81.7,995.1,192.6,2.0,4.0,206.2,0.00,22.8,25.9,"18:17:28",1
"22/07/09","18:30",0.0,26.1,81.3,995.6,205.4,1.5,3.5,226.2,0.00,22.7,25.7,"18:21:20",1
"22/07/09","18:40",0.0,25.8,80.6,995.6,222.2,1.3,3.4,236.9,0.00,22.2,25.7,"18:37:28",1
"22/07/09","18:50",0.0,25.9,80.5,995.6,264.9,0.8,2.4,230.3,0.00,22.3,25.6,"18:43:12",1
"22/07/09","19:00",0.0,25.8,81.0,995.6,277.6,0.8,1.3,284.8,0.00,22.3,25.8,"18:54:16",1
"22/07/09","19:10",0.0,25.8,83.1,995.3,337.0,1.7,3.1,350.6,0.00,22.8,25.5,"19:08:40",1
"22/07/09","19:20",0.0,25.3,84.6,995.8,349.4,1.1,2.0,1.1,0.00,22.6,25.5,"19:11:20",1
"22/07/09","19:30",0.4,25.3,85.8,996.0,0.4,1.0,1.6,338.3,0.00,22.8,25.7,"19:22:26",1
"22/07/09","19:40",0.4,24.9,86.9,996.0,352.4,1.1,1.8,347.1,0.00,22.6,25.6,"19:34:16",1
"22/07/09","19:50",1.8,24.8,87.8,996.3,335.1,0.7,1.3,349.7,0.00,22.7,25.8,"19:41:44",1
"22/07/09","20:00",2.0,24.7,88.5,996.5,318.4,0.6,1.1,346.9,0.00,22.7,25.5,"19:51:04",1
"22/07/09","20:10",1.0,24.6,89.3,996.3,332.9,1.2,2.0,335.4,0.00,22.8,25.7,"20:02:32",1
"22/07/09","20:20",1.4,24.4,89.9,996.7,354.7,0.8,1.6,352.6,0.00,22.7,25.6,"20:16:48",1
"22/07/09","20:30",0.8,24.1,90.5,997.0,331.4,1.0,1.9,338.6,0.00,22.5,25.5,"20:24:48",1
"22/07/09","20:40",0.8,24.2,90.9,996.7,324.9,0.8,2.0,343.0,0.00,22.7,25.4,"20:37:28",1
"22/07/09","20:50",0.8,24.1,91.3,997.0,26.6,0.5,1.1,18.7,0.00,22.6,25.4,"20:45:04",1
"22/07/09","21:00",0.6,24.0,91.8,996.7,274.5,0.6,1.7,349.5,0.00,22.6,25.6,"20:50:02",1
"22/07/09","21:10",0.8,24.0,92.1,997.0,296.4,1.1,2.5,339.1,0.00,22.7,25.4,"21:02:48",1
"22/07/09","21:20",2.6,24.1,92.4,997.2,298.9,1.0,1.9,333.4,0.00,22.8,25.2,"21:17:28",1
"22/07/09","21:30",2.0,23.9,92.6,997.4,269.0,0.7,1.7,236.3,0.00,22.7,25.3,"21:21:44",1
"22/07/09","21:40",1.4,23.9,92.8,997.4,225.7,0.6,1.2,247.4,0.00,22.7,25.3,"21:34:56",1
"22/07/09","21:50",0.6,23.9,93.1,997.4,293.4,0.5,1.3,305.0,0.00,22.8,25.2,"21:48:40",1
"22/07/09","22:00",0.2,23.8,93.2,997.7,262.5,0.6,1.9,245.1,0.00,22.7,25.1,"21:52:56",1
"22/07/09","22:10",0.0,23.9,93.4,997.4,281.0,0.6,1.4,340.6,0.00,22.8,25.3,"22:06:08",1
"22/07/09","22:20",0.0,23.9,93.5,997.4,253.7,0.5,1.4,230.5,0.00,22.8,25.0,"22:11:12",1
"22/07/09","22:30",0.2,23.9,93.7,997.9,308.5,0.7,1.6,344.8,0.00,22.9,25.2,"22:23:36",1
"22/07/09","22:40",0.0,23.9,93.8,998.2,305.1,1.0,2.0,312.0,0.00,22.9,25.0,"22:38:40",1
"22/07/09","22:50",0.2,23.9,93.9,997.7,321.9,0.8,1.3,342.8,0.00,22.9,25.0,"22:40:32",1
"22/07/09","23:00",0.2,23.9,94.1,997.7,329.8,0.6,1.3,348.4,0.00,22.9,25.1,"22:55:06",1
"22/07/09","23:10",0.0,24.0,94.1,997.7,305.5,0.6,1.1,333.5,0.00,23.0,25.1,"23:08:16",1
"22/07/09","23:20",0.0,24.0,94.2,997.9,283.9,0.5,0.9,257.3,0.00,23.0,25.2,"23:15:20",1
"22/07/09","23:30",0.0,23.9,94.3,997.9,308.9,0.6,1.0,312.4,0.00,23.0,25.1,"23:22:56",1
"22/07/09","23:40",0.0,23.9,94.4,997.7,339.2,0.5,0.9,340.4,0.00,23.0,25.2,"23:30:02",1
"22/07/09","23:50",0.0,24.0,94.5,997.7,297.9,0.6,1.2,339.8,0.00,23.1,25.3,"23:40:08",1
"22/07/09","24:00",0.0,24.0,94.5,997.7,302.0,0.7,1.2,343.3,0.00,23.1,24.9,"23:57:12",1
